Weather History for Goodland, KS

Change the Weather History Date:

Monday, April 2, 2012

  Actual Average Record
Temperature  
Mean Temperature 52 °F 45 °F  
Max Temperature 65 °F 60 °F 86 °F (1996)
Min Temperature 39 °F 31 °F 0 °F (1936)
Degree Days  
Heating Degree Days 13 20  
Month to date heating degree days 13 40  
Since 1 July heating degree days 4608 5215  
Cooling Degree Days 0 0  
Month to date cooling degree days 4 0  
Year to date cooling degree days 6 0  
Growing Degree Days 3 (Base 50)    
Moisture  
Dew Point 30 °F    
Average Humidity 49    
Maximum Humidity 73    
Minimum Humidity 24    
Precipitation  
Precipitation 0.08 in 0.04 in 0.75 in (1957)
Month to date precipitation 0.08 0.08  
Year to date precipitation 1.19 2.02  
Snow  
Snow 0.00 in 0.30 in - ()
Month to date snowfall 0.0 0.5  
Since 1 July snowfall 17.1 31.3  
Snow Depth 0.00 in    
Sea Level Pressure  
Sea Level Pressure 29.67 in    
Wind  
Wind Speed 26 mph (North)    
Max Wind Speed 38 mph    
Max Gust Speed 45 mph    
Visibility 10 miles    
Events      
T = Trace of Precipitation, MM = Missing Value Source: NWS Daily Summary

Daily Weather History Graph

Daily Weather History Graph

Search for Another Location

Airport:

Trip Planner

Search our weather history database for the weather conditions in past years. The results will help you decide how hot, cold, wet, or windy it might be!

Date:

Astronomy

Apr. 02, 2012 Rise Set
Actual Time 6:28 AM MDT 7:12 PM MDT
Civil Twilight 6:01 AM MDT 7:39 PM MDT
Nautical Twilight 5:29 AM MDT 8:11 PM MDT
Astronomical Twilight 4:56 AM MDT 8:44 PM MDT
Moon 2:51 PM MDT (4/2) 3:41 AM MDT (4/2)
Length of Visible Light 13h 37m
Length of Day
12h 43m
Waxing Gibbous, 79% of the Moon is Illuminated
Apr 2
Waxing Gibbous
Apr 6
Full
Apr 13
Last Quarter
Apr 21
New
Apr 29
First Quarter

Hourly Weather History & Observations

Time (MDT) Temp. Windchill Dew Point Humidity Pressure Visibility Wind Dir Wind Speed Gust Speed Precip Events Conditions
12:53 AM 55.0 °F - 21.9 °F 28% 29.23 in 10.0 mi WSW 12.7 mph - N/A   Clear
1:53 AM 55.0 °F - 19.0 °F 24% 29.22 in 10.0 mi WSW 12.7 mph - N/A   Clear
2:53 AM 54.0 °F - 17.1 °F 23% 29.25 in 10.0 mi WSW 15.0 mph - N/A   Clear
3:53 AM 51.1 °F - 18.0 °F 27% 29.29 in 10.0 mi WSW 16.1 mph - N/A   Clear
4:53 AM 48.9 °F - 28.0 °F 44% 29.33 in 10.0 mi WNW 16.1 mph - N/A   Clear
5:53 AM 50.0 °F - 37.9 °F 63% 29.40 in 10.0 mi NNW 21.9 mph 32.2 mph N/A   Clear
6:53 AM 48.0 °F - 37.0 °F 66% 29.48 in 10.0 mi North 21.9 mph 28.8 mph N/A   Clear
7:53 AM 48.9 °F - 35.1 °F 59% 29.54 in 10.0 mi North 28.8 mph 36.8 mph N/A   Clear
8:53 AM 52.0 °F - 30.0 °F 43% 29.56 in 10.0 mi North 34.5 mph 43.7 mph N/A   Clear
9:53 AM 55.9 °F - 30.9 °F 39% 29.61 in 10.0 mi North 29.9 mph 40.3 mph N/A   Clear
10:53 AM 59.0 °F - 33.1 °F 38% 29.62 in 10.0 mi North 28.8 mph 39.1 mph N/A   Clear
11:53 AM 61.0 °F - 33.1 °F 35% 29.65 in 10.0 mi North 27.6 mph 38.0 mph N/A   Clear
12:53 PM 63.0 °F - 33.1 °F 33% 29.66 in 10.0 mi North 29.9 mph 36.8 mph N/A   Clear
1:53 PM 64.0 °F - 32.0 °F 30% 29.67 in 10.0 mi North 28.8 mph 39.1 mph N/A   Clear
2:53 PM 64.0 °F - 30.0 °F 28% 29.68 in 10.0 mi North 29.9 mph 41.4 mph N/A   Clear
3:53 PM 63.0 °F - 28.9 °F 28% 29.70 in 10.0 mi North 26.5 mph 39.1 mph N/A   Clear
4:53 PM 59.0 °F - 30.9 °F 35% 29.76 in 10.0 mi North 32.2 mph 39.1 mph N/A   Clear
5:53 PM 54.0 °F - 32.0 °F 43% 29.82 in 10.0 mi North 31.1 mph 40.3 mph N/A   Clear
6:53 PM 48.0 °F - 28.9 °F 48% 29.88 in 10.0 mi North 32.2 mph 42.6 mph N/A   Mostly Cloudy
7:53 PM 46.0 °F 36.9 °F 28.0 °F 50% 29.93 in 10.0 mi North 28.8 mph 40.3 mph N/A   Overcast
8:30 PM 44.6 °F 34.9 °F 32.0 °F 61% 29.98 in 10.0 mi North 28.8 mph 40.3 mph N/A   Overcast
8:53 PM 45.0 °F 36.4 °F 30.9 °F 58% 29.96 in 10.0 mi North 23.0 mph 32.2 mph N/A   Overcast
9:10 PM 44.6 °F 35.7 °F 30.2 °F 57% 29.98 in 10.0 mi North 24.2 mph 28.8 mph N/A   Overcast
9:53 PM 44.1 °F 35.0 °F 30.0 °F 58% 29.95 in 10.0 mi North 24.2 mph 40.3 mph N/A   Overcast
10:21 PM 42.8 °F 32.9 °F 30.2 °F 61% 30.00 in 10.0 mi North 26.5 mph 38.0 mph N/A   Overcast
10:53 PM 42.1 °F 32.1 °F 32.0 °F 67% 29.97 in 10.0 mi North 25.3 mph 39.1 mph N/A   Overcast
11:53 PM 41.0 °F 30.9 °F 34.0 °F 76% 29.99 in 10.0 mi North 24.2 mph 36.8 mph N/A   Overcast